Staverton, United Kingdom

9:58 PM GMT on March 23, 2017 (GMT +0000)
Gloucestershire

Weather History for EGBJ - October, 2012

Change the Weather History Date:

Monday, October 22, 2012

  Actual Average Record
Temperature  
Mean Temperature 55 °F -  
Max Temperature 57 °F 51 °F 64 °F (2013)
Min Temperature 53 °F 45 °F 35 °F (1997)
Degree Days  
Heating Degree Days 10    
Growing Degree Days 5 (Base 50)    
Moisture  
Dew Point 54 °F    
Average Humidity 93    
Maximum Humidity 94    
Minimum Humidity 88    
Precipitation  
Precipitation 0.00 in - - ()
Sea Level Pressure  
Sea Level Pressure 30.13 in    
Wind  
Wind Speed 4 mph ()    
Max Wind Speed 6 mph    
Max Gust Speed -    
Visibility 3.1 miles    
Events Rain    
Averages and records for this station are not official NWS values.
T = Trace of Precipitation, MM = Missing Value Source: Averaged Metar Reports

Daily Weather History Graph

Daily Weather History Graph

Search for Another Location

Airport or City:

Trip Planner

Search our weather history database for the weather conditions in past years. The results will help you decide how hot, cold, wet, or windy it might be!

Date:

Astronomy

Oct. 22, 2012 Rise Set
Actual Time 7:46 AM BST 5:59 PM BST
Civil Twilight 7:11 AM BST 6:33 PM BST
Nautical Twilight 6:32 AM BST 7:12 PM BST
Astronomical Twilight 5:53 AM BST 7:51 PM BST
Moon 2:44 PM BST (10/22) No Moon Set
Length of Visible Light 11h 22m
Length of Day
10h 13m
First Quarter, 53% of the Moon is Illuminated
Oct 22
First Quarter
Oct 29
Full
Nov 7
Last Quarter
Nov 13
New
Nov 20
First Quarter

Hourly Weather History & Observations

Time (BST) Temp. Dew Point Humidity Pressure Visibility Wind Dir Wind Speed Gust Speed Precip Events Conditions
6:50 AM 53.6 °F 51.8 °F 94% 30.09 in 6.2 mi NNE 4.6 mph - N/A Rain Light Rain
7:20 AM 53.6 °F 51.8 °F 94% 30.09 in 3.1 mi North 4.6 mph - N/A Rain Light Rain
7:50 AM 53.6 °F 51.8 °F 94% 30.09 in 1.1 mi NNE 4.6 mph - N/A Rain Light Rain
8:20 AM 53.6 °F 51.8 °F 94% 30.09 in 1.4 mi NNE 4.6 mph - N/A   Drizzle
8:50 AM 53.6 °F 51.8 °F 94% 30.12 in 1.6 mi North 4.6 mph - N/A   Light Drizzle
9:50 AM 53.6 °F 51.8 °F 94% 30.12 in 1.1 mi NE 5.8 mph - N/A Rain Light Rain
10:20 AM 53.6 °F 51.8 °F 94% 30.12 in 2.5 mi North 3.5 mph - N/A   Haze
10:50 AM 55.4 °F 53.6 °F 94% 30.12 in 2.5 mi NNE 5.8 mph - N/A   Haze
11:20 AM 55.4 °F 53.6 °F 94% 30.12 in 3.1 mi NNE 4.6 mph - N/A   Haze
12:50 PM 57.2 °F 53.6 °F 88% 30.12 in 4.3 mi North 3.5 mph - N/A   Overcast
1:20 PM 57.2 °F 53.6 °F 88% 30.12 in 3.7 mi NNE 3.5 mph - N/A   Overcast
1:50 PM 57.2 °F 55.4 °F 94% 30.12 in 3.7 mi NNE 3.5 mph - N/A   Overcast
2:20 PM 57.2 °F 55.4 °F 94% 30.12 in 3.7 mi NNE 5.8 mph - N/A   Overcast
2:50 PM 57.2 °F 55.4 °F 94% 30.12 in 3.7 mi North 5.8 mph - N/A   Overcast
3:20 PM 57.2 °F 55.4 °F 94% 30.15 in 4.3 mi NNE 3.5 mph - N/A   Overcast
3:50 PM 57.2 °F 55.4 °F 94% 30.15 in 4.3 mi NNE 4.6 mph - N/A   Overcast
4:20 PM 57.2 °F 55.4 °F 94% 30.15 in 3.1 mi NE 4.6 mph - N/A   Overcast
4:50 PM 57.2 °F 55.4 °F 94% 30.15 in 3.1 mi NE 2.3 mph - N/A   Overcast
5:20 PM 57.2 °F 55.4 °F 94% 30.15 in 2.8 mi North 2.3 mph - N/A   Haze
5:50 PM 57.2 °F 55.4 °F 94% 30.15 in 2.8 mi NNE 2.3 mph - N/A   Haze
6:20 PM 57.2 °F 55.4 °F 94% 30.18 in 1.9 mi NNE 2.3 mph - N/A   Haze
6:50 PM 57.2 °F 55.4 °F 94% 30.18 in 3.1 mi NNE 2.3 mph - N/A   Haze
7:20 PM 57.2 °F 55.4 °F 94% 30.18 in 3.1 mi NNE 2.3 mph - N/A   Haze